FECHA, PRODUCCION
2010-08-30, 30.42
2010-08-31, 24.01
2010-09-01, 28.54
2010-09-02, 30.2
2010-09-03, 29.36
2010-09-04, 29.66
2010-09-05, 30.87
2010-09-06, 31.02
2010-09-07, 30.94
2010-09-08, 31.92
2010-09-09, 31.43
2010-09-10, 31.73
2010-09-11, 28.99
2010-09-12, 28.92
2010-09-13, 25.09
2010-09-14, 30.21
2010-09-15, 29.19
2010-09-16, 10.39
2010-09-17, 10.96
2010-09-18, 29.62
2010-09-19, 26.67
2010-09-20, 21.25
2010-09-21, 29.44
2010-09-22, 23.17
2010-09-23, 6.26
2010-09-24, 31.14
2010-09-25, 28.93
2010-09-26, 22.56
2010-09-27, 29.35
2010-09-28, 29.36
2010-09-29, 29.88
2010-09-30, 29.9
2010-10-01, 29.72
2010-10-02, 27.79
2010-10-03, 23.21
2010-10-04, 24
2010-10-05, 30.83
2010-10-06, 28.83
2010-10-07, 15.19
2010-10-08, 26.76
2010-10-09, 3.25
2010-10-10, 27.48
2010-10-11, 28.82
2010-10-12, 15.95
2010-10-13, 26.9
2010-10-14, 28.35
2010-10-15, 27.65
2010-10-16, 27.75
2010-10-17, 29.18
2010-10-18, 28.4
2010-10-19, 18.29
2010-10-20, 28.5
2010-10-21, 26.93
2010-10-22, 13.81
2010-10-23, 11.64
2010-10-24, 26.69
2010-10-25, 27.27
2010-10-26, 27.84
2010-10-27, 27.21
2010-10-28, 19.26
2010-10-29, 24.5
2010-10-30, 5.86
2010-10-31, 22.23
2010-11-01, 27.34
2010-11-02, 27.2
2010-11-03, 26.76
2010-11-04, 26.83
2010-11-05, 26.07
2010-11-06, 25.41
2010-11-07, 14.76
2010-11-08, 19.73
2010-11-09, 6.44
2010-11-10, 19.8
2010-11-11, 25.98
2010-11-12, 23.39
2010-11-13, 24.69
2010-11-14, 18.56
2010-11-15, 0
2010-11-16, 0
2010-11-17, 7.81
2010-11-18, 0
2010-11-19, 0
2010-11-20, 0
2010-11-21, 0
2010-11-22, 0
2010-11-23, 0
2010-11-24, 0
2010-11-25, 0
2010-11-26, 0
2010-11-27, 0
2010-11-28, 0
2010-11-29, 0
2010-11-30, 0
2010-12-01, 0
2010-12-02, 0
2010-12-03, 0
2010-12-04, 0
2010-12-05, 0
2010-12-06, 0
2010-12-07, 0
2010-12-08, 0
2010-12-09, 19.83
2010-12-10, 1.84
2010-12-11, 17.66
2010-12-12, 15.48
2010-12-13, 11.85
2010-12-14, 19.29
2010-12-15, 22.22
2010-12-16, 20.39
2010-12-17, 12.89
2010-12-18, 1.14
2010-12-19, 11.9
2010-12-20, 8.96
2010-12-21, 2.64
2010-12-22, 1.4
2010-12-23, 19.46
2010-12-24, 14.23
2010-12-25, 8.7
2010-12-26, 22.28
2010-12-27, 21.04
2010-12-28, 8.21
2010-12-29, 4.69
2010-12-30, 3.94
2010-12-31, 6.29
